Location: Beulah
(33.1426°N, 83.0557°W)
Time: 02:58:20
(UTC+00:00)

Envisat - Pass Details

Date: 09 December 2021
Orbit: 764 x 766 km, 98.2° (Epoch: 23 January)

Event Time Altitude Azimuth Distance (km) Brightness Sun altitude
Rises 09:11:13 0° 37° (NE) 3,234 6.6 -39.5°
Reaches altitude 10° 09:14:46 10° 63° (ENE) 2,302 6.0 -38.8°
Maximum altitude 09:17:16 14° 93° (E) 2,051 5.9 -38.3°
Drops below altitude 10° 09:19:45 10° 122° (ESE) 2,294 6.0 -37.8°
Sets 09:23:16 0° 148° (SSE) 3,214 6.7 -37.0°
